"Pseudo-MPEC" for P21XIn6

Created 2024 Sep 21 19:22:05 UT using Find_Orb

Click here for an explanation of pseudo-MPECs

 
 Astrometry: 
     P21XIn6* C2024 09 01.35184622 42 19.218+15 56 11.20   ~91C7 22.61wXNEOCPF52
     P21XIn6  C2024 09 01.36508622 42 17.785+15 56 16.94   ~91C7 22.98wXNEOCPF52
     P21XIn6  C2024 09 01.37830422 42 16.316+15 56 22.24   ~91C7 22.58wXNEOCPF52
     P21XIn6  C2024 09 01.52531922 42 00.117+15 57 24.48   ~91K7 22.34GVNEOCPF52
     P21XIn6  C2024 09 01.52614922 42 00.029+15 57 24.80   ~91K7 22.62GVNEOCPF52

Station data:
(F52) Pan-STARRS 2, Haleakala  (N20.707382 W156.255910)  US/Hawaii.
   Observers J. Bulger, T. Dukes, T. Lowe, A. Schultz, M. Willman. Measurers
   K. Chambers, S. Chastel, T. de Boer, L. Denneau, J. Fairlamb, H.
   Flewelling, M. Huber, C.-C. Lin, E. Magnier, Y. Ramanjooloo, R. Wainscoat,
   R. Weryk. 1.8-m Ritchey-Chrétien + CCD.

Orbital elements:  P21XIn6
   Perihelion 2024 Mar 28.81708 +/- 212 TT = 19:36:36 (JD 2460398.31708)
Epoch 2024 Sep  1.0 TT = JDT 2460554.5   Earth MOID: 0.6515   Ju: 0.9825
M  13.08154295 +/- 56               (J2000 ecliptic)             AutoNEOCP
n   0.08375783 +/- 0.14             Peri.  296.20967 +/- 100
a   5.17351548 +/- 5.78             Node   328.41072 +/- 30
e   0.7247946 +/- 0.269             Incl.   39.55251 +/- 26
P  11.76735                H 19.59  G  0.15   U 11.4  SR
q 1.42377929 +/- 0.772    Q 8.92325168 +/- 32.9
From 5 observations 2024 Sept. 1 (4.2 hr); mean residual 0".12
Residuals in arcseconds: 
240901 F52  .17-  .08+    240901 F52  .00   .24-    240901 F52  .02+  .00     
240901 F52  .18+  .13+    240901 F52  .03-  .03+    

Ephemerides (geocentric):
Date (UTC) HH   RA             Dec           delta  r     elong  mag " sig PA
---- --------  ------------   ------------  ------ ------ -----  --- --------
2024 09 21 19  22 11 18.878   +17 07 14.49  1.5303 2.4448 148.8 23.2 5615  84
2024 09 21 20  22 11 15.956   +17 07 16.03  1.5308 2.4452 148.8 23.2 5639  84
2024 09 21 21  22 11 13.038   +17 07 17.54  1.5314 2.4455 148.7 23.2 5663  84
2024 09 21 22  22 11 10.124   +17 07 19.04  1.5319 2.4458 148.7 23.2 5688  84
2024 09 21 23  22 11 07.214   +17 07 20.51  1.5324 2.4461 148.7 23.2 5712  84
2024 09 22 00  22 11 04.307   +17 07 21.97  1.5330 2.4465 148.6 23.2 5737  85
2024 09 22 01  22 11 01.405   +17 07 23.40  1.5335 2.4468 148.6 23.2 5761  85
2024 09 22 02  22 10 58.507   +17 07 24.81  1.5340 2.4471 148.6 23.2 5786  85
2024 09 22 03  22 10 55.613   +17 07 26.20  1.5346 2.4475 148.5 23.2 5811  85
2024 09 22 04  22 10 52.723   +17 07 27.57  1.5351 2.4478 148.5 23.2 5836  85
2024 09 22 05  22 10 49.836   +17 07 28.92  1.5356 2.4481 148.5 23.2 5860  85
2024 09 22 06  22 10 46.954   +17 07 30.24  1.5362 2.4485 148.5 23.2 5885  85
2024 09 22 07  22 10 44.076   +17 07 31.55  1.5367 2.4488 148.4 23.2 5910  85
2024 09 22 08  22 10 41.202   +17 07 32.84  1.5373 2.4491 148.4 23.2 5935  85
2024 09 22 09  22 10 38.331   +17 07 34.10  1.5378 2.4495 148.4 23.2 5961  85
2024 09 22 10  22 10 35.465   +17 07 35.35  1.5383 2.4498 148.3 23.2 5986  85
2024 09 22 11  22 10 32.602   +17 07 36.58  1.5389 2.4501 148.3 23.2 6011  85
2024 09 22 12  22 10 29.744   +17 07 37.78  1.5394 2.4505 148.3 23.2 6036  85
2024 09 22 13  22 10 26.890   +17 07 38.96  1.5399 2.4508 148.2 23.2 6062  85
2024 09 22 14  22 10 24.039   +17 07 40.13  1.5405 2.4511 148.2 23.2 6087  85
2024 09 22 15  22 10 21.193   +17 07 41.27  1.5410 2.4515 148.2 23.2 6113  85
2024 09 22 16  22 10 18.350   +17 07 42.40  1.5416 2.4518 148.1 23.2 6139  85
2024 09 22 17  22 10 15.512   +17 07 43.50  1.5421 2.4521 148.1 23.2 6164  85
2024 09 22 18  22 10 12.677   +17 07 44.58  1.5426 2.4524 148.1 23.2 6190  85
2024 09 22 19  22 10 09.847   +17 07 45.65  1.5432 2.4528 148.0 23.2 6216  85
2024 09 22 20  22 10 07.020   +17 07 46.69  1.5437 2.4531 148.0 23.2 6242  85
2024 09 22 21  22 10 04.198   +17 07 47.71  1.5443 2.4534 148.0 23.2 6268  85
2024 09 22 22  22 10 01.379   +17 07 48.72  1.5448 2.4538 147.9 23.2 6294  85
2024 09 22 23  22 09 58.564   +17 07 49.70  1.5454 2.4541 147.9 23.2 6320  85
2024 09 23 00  22 09 55.754   +17 07 50.66  1.5459 2.4544 147.9 23.2 6346  85
2024 09 23 01  22 09 52.947   +17 07 51.61  1.5464 2.4548 147.8 23.2 6372  85
2024 09 23 02  22 09 50.145   +17 07 52.53  1.5470 2.4551 147.8 23.2 6399  85
2024 09 23 03  22 09 47.346   +17 07 53.44  1.5475 2.4554 147.8 23.2 6425  85
2024 09 23 04  22 09 44.551   +17 07 54.32  1.5481 2.4558 147.7 23.2 6451  86
2024 09 23 05  22 09 41.761   +17 07 55.19  1.5486 2.4561 147.7 23.2 6478  86
2024 09 23 06  22 09 38.974   +17 07 56.03  1.5492 2.4564 147.7 23.2 6504  86
2024 09 23 07  22 09 36.192   +17 07 56.86  1.5497 2.4568 147.7 23.2 6531  86
2024 09 23 08  22 09 33.413   +17 07 57.67  1.5503 2.4571 147.6 23.2 6558  86
2024 09 23 09  22 09 30.638   +17 07 58.45  1.5508 2.4574 147.6 23.2 6585  86
2024 09 23 10  22 09 27.868   +17 07 59.22  1.5514 2.4578 147.6 23.2 6612  86
2024 09 23 11  22 09 25.101   +17 07 59.97  1.5519 2.4581 147.5 23.3 6638  86
2024 09 23 12  22 09 22.339   +17 08 00.70  1.5524 2.4584 147.5 23.3 6665  86
2024 09 23 13  22 09 19.580   +17 08 01.41  1.5530 2.4587 147.5 23.3 6693  86
2024 09 23 14  22 09 16.825   +17 08 02.10  1.5535 2.4591 147.4 23.3 6720  86
2024 09 23 15  22 09 14.075   +17 08 02.78  1.5541 2.4594 147.4 23.3 6747  86
2024 09 23 16  22 09 11.328   +17 08 03.43  1.5546 2.4597 147.4 23.3 6774  86
2024 09 23 17  22 09 08.586   +17 08 04.06  1.5552 2.4601 147.3 23.3 6802  86
2024 09 23 18  22 09 05.847   +17 08 04.68  1.5557 2.4604 147.3 23.3 6829  86